GW0326 Weather Reports


Display with metric or nautical units.
time (UTC)temp
F
wind
direction
speed
MPH
gust
MPH
rain 1hr
in
rain 24hr
in
rain mn
in
humidity
%
barometer
mb
20260503200548 62 309 2.0 10.0 0.00 0.00 0.00 20 1018.0
20260503200055 62 0 1.0 10.0 0.00 0.00 0.00 20 1017.8
20260503195548 62 0 2.0 10.0 0.00 0.00 0.00 21 1017.8
20260503195047 61 330 0.0 10.0 0.00 0.00 0.00 20 1017.9
20260503194604 61 285 3.0 11.0 0.00 0.00 0.00 19 1018.0
20260503194044 62 241 2.0 11.0 0.00 0.00 0.00 19 1018.0
20260503193543 62 194 1.0 7.0 0.00 0.00 0.00 21 1018.0
20260503193056 62 0 0.0 4.0 0.00 0.00 0.00 21 1018.1
20260503192546 62 251 1.0 9.0 0.00 0.00 0.00 20 1018.0
20260503192047 62 296 1.0 9.0 0.00 0.00 0.00 20 1018.1
20260503191555 62 0 3.0 9.0 0.00 0.00 0.00 20 1018.2
20260503191047 62 273 0.0 7.0 0.00 0.00 0.00 21 1018.4
20260503190546 61 288 1.0 7.0 0.00 0.00 0.00 21 1018.4
20260503185545 62 215 3.0 11.0 0.00 0.00 0.00 20 1018.5
20260503185045 62 219 2.0 11.0 0.00 0.00 0.00 20 1018.7
20260503184601 62 333 1.0 4.0 0.00 0.00 0.00 19 1018.6
20260503184048 62 0 0.0 4.0 0.00 0.00 0.00 20 1018.7
20260503183544 61 0 0.0 7.0 0.00 0.00 0.00 23 1018.9
20260503183105 61 0 1.0 9.0 0.00 0.00 0.00 21 1019.1
20260503182544 61 306 2.0 9.0 0.00 0.00 0.00 21 1019.2
20260503182045 61 0 2.0 7.0 0.00 0.00 0.00 22 1019.2
20260503181609 61 0 1.0 11.0 0.00 0.00 0.00 21 1019.2
20260503181047 61 225 2.0 11.0 0.00 0.00 0.00 23 1019.4
20260503180545 61 238 3.0 11.0 0.00 0.00 0.00 21 1019.5
20260503180100 61 0 1.0 7.0 0.00 0.00 0.00 21 1019.6
20260503175546 61 0 1.0 8.0 0.00 0.00 0.00 22 1019.7
20260503175044 61 0 1.0 8.0 0.00 0.00 0.00 22 1019.7
20260503174554 60 275 1.0 12.0 0.00 0.00 0.00 25 1019.9
20260503174044 60 0 0.0 12.0 0.00 0.00 0.00 25 1019.8
20260503173545 59 277 0.0 11.0 0.00 0.00 0.00 23 1019.9
20260503173052 59 0 2.0 11.0 0.00 0.00 0.00 25 1020.0
20260503172543 58 200 2.0 13.0 0.00 0.00 0.00 26 1020.1
20260503172043 57 267 2.0 13.0 0.00 0.00 0.00 26 1020.1
20260503171552 57 0 2.0 15.0 0.00 0.00 0.00 26 1020.3
20260503171043 56 0 2.0 15.0 0.00 0.00 0.00 27 1020.3
20260503170547 56 281 4.0 15.0 0.00 0.00 0.00 26 1020.3
20260503150547 52 279 2.0 9.0 0.00 0.00 0.00 33 1020.5
20260503131044 48 0 1.0 5.0 0.00 0.00 0.00 34 1021.3
20260503130551 48 273 0.0 4.0 0.00 0.00 0.00 34 1021.3
20260503110544 47 221 0.0 7.0 0.00 0.00 0.00 37 1020.1
20260503110108 47 350 0.0 7.0 0.00 0.00 0.00 37 1020.2
20260503090123 47 0 0.0 7.0 0.00 0.00 0.00 39 1020.8
20260503081550 47 291 0.0 5.0 0.00 0.00 0.00 40 1021.1
20260503081048 47 292 1.0 5.0 0.00 0.00 0.00 39 1021.3
20260503080547 47 289 0.0 4.0 0.00 0.00 0.00 39 1021.2
20260503072547 45 290 1.0 6.0 0.00 0.00 0.00 39 1021.6
20260503072048 45 272 1.0 6.0 0.00 0.00 0.00 38 1021.6
20260503071610 45 257 1.0 5.0 0.00 0.00 0.00 39 1021.6
20260503071048 44 257 1.0 5.0 0.00 0.00 0.00 39 1021.7
20260503070549 43 243 1.0 3.0 0.00 0.00 0.00 40 1021.6
20260503060109 44 254 1.0 6.0 0.00 0.00 0.00 34 1021.8
20260503055047 44 0 1.0 6.0 0.00 0.00 0.00 32 1021.8
20260503054557 44 273 0.0 5.0 0.00 0.00 0.00 33 1021.9
20260503054044 44 302 2.0 7.0 0.00 0.00 0.00 33 1021.9
20260503053544 44 277 1.0 7.0 0.00 0.00 0.00 33 1021.9
20260503053053 44 236 1.0 8.0 0.00 0.00 0.00 33 1021.8
20260503052545 44 0 1.0 8.0 0.00 0.00 0.00 33 1021.7
20260503052044 44 227 1.0 7.0 0.00 0.00 0.00 34 1021.7
20260503051552 43 232 2.0 7.0 0.00 0.00 0.00 34 1021.7
20260503051052 43 0 0.0 3.0 0.00 0.00 0.00 34 1021.6
20260503050545 43 360 0.0 4.0 0.00 0.00 0.00 35 1021.6
20260503050054 42 0 0.0 6.0 0.00 0.00 0.00 35 1021.7
20260503045550 41 360 0.0 6.0 0.00 0.00 0.00 36 1021.8
20260503045050 41 192 0.0 2.0 0.00 0.00 0.00 36 1021.8
20260503044551 41 0 0.0 0.0 0.00 0.00 0.00 36 1021.9
20260503044045 41 0 0.0 0.0 0.00 0.00 0.00 34 1021.9
20260503043546 41 0 0.0 0.0 0.00 0.00 0.00 33 1021.9
20260503043050 41 0 0.0 2.0 0.00 0.00 0.00 34 1021.9
20260503042550 41 0 0.0 2.0 0.00 0.00 0.00 33 1022.0
20260503042048 41 0 0.0 2.0 0.00 0.00 0.00 34 1022.0
20260503041552 41 0 0.0 2.0 0.00 0.00 0.00 32 1022.0
20260503041047 42 0 0.0 1.0 0.00 0.00 0.00 33 1021.9
20260503040546 42 0 0.0 1.0 0.00 0.00 0.00 34 1021.9
20260503040100 42 0 0.0 0.0 0.00 0.00 0.00 32 1021.9
20260503035546 42 0 0.0 0.0 0.00 0.00 0.00 31 1021.9
20260503035046 42 0 0.0 0.0 0.00 0.00 0.00 30 1021.9
20260503034557 42 0 0.0 0.0 0.00 0.00 0.00 30 1021.8
20260503034046 42 0 0.0 2.0 0.00 0.00 0.00 28 1021.8
20260503033547 42 0 0.0 2.0 0.00 0.00 0.00 28 1021.9
20260503033053 42 0 0.0 2.0 0.00 0.00 0.00 29 1021.9
20260503032549 43 0 0.0 2.0 0.00 0.00 0.00 29 1021.9
20260503032050 43 0 0.0 0.0 0.00 0.00 0.00 29 1021.9
20260503031604 43 0 0.0 0.0 0.00 0.00 0.00 29 1021.8
20260503031044 43 0 0.0 0.0 0.00 0.00 0.00 28 1021.8
20260503030547 44 0 0.0 0.0 0.00 0.00 0.00 28 1021.7
20260503030051 44 0 0.0 0.0 0.00 0.00 0.00 27 1021.9
20260503025544 44 0 0.0 0.0 0.00 0.00 0.00 24 1021.7
20260503025044 45 0 0.0 0.0 0.00 0.00 0.00 26 1021.7
20260503024552 45 0 0.0 0.0 0.00 0.00 0.00 25 1021.7
20260503024045 45 0 0.0 0.0 0.00 0.00 0.00 26 1021.6
20260503023606 45 0 0.0 0.0 0.00 0.00 0.00 26 1021.6
20260503023100 45 0 0.0 0.0 0.00 0.00 0.00 26 1021.6
20260503022548 46 0 0.0 0.0 0.00 0.00 0.00 26 1021.5
20260503022044 46 0 0.0 0.0 0.00 0.00 0.00 26 1021.5
20260503021550 46 0 0.0 0.0 0.00 0.00 0.00 26 1021.5
20260503021047 47 0 0.0 0.0 0.00 0.00 0.00 27 1021.4
20260503020545 47 0 0.0 0.0 0.00 0.00 0.00 27 1021.4
20260503020053 48 0 0.0 0.0 0.00 0.00 0.00 24 1021.3
20260503015546 48 0 0.0 0.0 0.00 0.00 0.00 24 1021.3
20260503015045 49 0 0.0 0.0 0.00 0.00 0.00 24 1021.2
20260503014608 50 0 0.0 0.0 0.00 0.00 0.00 23 1021.2
20260503014044 51 0 0.0 0.0 0.00 0.00 0.00 23 1021.2
20260503013548 52 0 0.0 0.0 0.00 0.00 0.00 22 1021.2
20260503013054 53 0 0.0 1.0 0.00 0.00 0.00 21 1021.1
20260503012548 53 0 0.0 1.0 0.00 0.00 0.00 19 1021.1
20260503012044 54 0 0.0 2.0 0.00 0.00 0.00 18 1021.1
20260503011557 55 0 0.0 2.0 0.00 0.00 0.00 17 1021.0
20260503011045 55 126 0.0 4.0 0.00 0.00 0.00 17 1021.0
20260503010545 56 0 0.0 4.0 0.00 0.00 0.00 16 1021.0
20260503010058 56 0 0.0 6.0 0.00 0.00 0.00 16 1020.9
20260503005548 56 0 2.0 6.0 0.00 0.00 0.00 16 1020.9
20260503005047 57 70 0.0 4.0 0.00 0.00 0.00 16 1020.9
20260503004550 57 0 1.0 4.0 0.00 0.00 0.00 17 1020.9
20260503004050 57 0 1.0 4.0 0.00 0.00 0.00 16 1020.9
20260503003545 58 84 0.0 5.0 0.00 0.00 0.00 16 1020.9
20260503003106 58 0 1.0 7.0 0.00 0.00 0.00 16 1020.9
20260503002547 58 117 1.0 7.0 0.00 0.00 0.00 16 1020.9
20260503002044 58 101 3.0 10.0 0.00 0.00 0.00 15 1020.9
20260503001604 58 101 2.0 10.0 0.00 0.00 0.00 16 1020.9
20260503001047 58 42 0.0 7.0 0.00 0.00 0.00 16 1020.9
20260503000546 59 98 1.0 6.0 0.00 0.00 0.00 16 1021.0
20260503000051 59 0 1.0 7.0 0.00 0.00 0.00 16 1021.0
20260502235545 59 72 1.0 7.0 0.00 0.00 0.00 16 1021.0
20260502235047 59 157 1.0 7.0 0.00 0.00 0.00 16 1021.0
20260502234552 59 128 1.0 8.0 0.00 0.00 0.00 16 1021.1
20260502234045 59 0 0.0 8.0 0.00 0.00 0.00 17 1021.1
20260502233545 59 72 3.0 8.0 0.00 0.00 0.00 16 1021.0
20260502233052 59 61 1.0 8.0 0.00 0.00 0.00 18 1021.1
20260502232550 59 0 2.0 9.0 0.00 0.00 0.00 17 1021.1
20260502232047 59 113 2.0 9.0 0.00 0.00 0.00 17 1021.1
20260502231600 59 40 3.0 12.0 0.00 0.00 0.00 17 1021.1
20260502231047 59 0 3.0 12.0 0.00 0.00 0.00 18 1021.1
20260502230547 60 55 4.0 12.0 0.00 0.00 0.00 17 1021.0
20260502230055 60 120 2.0 10.0 0.00 0.00 0.00 18 1021.2
20260502225546 60 63 3.0 10.0 0.00 0.00 0.00 18 1021.1
20260502225047 60 95 3.0 9.0 0.00 0.00 0.00 18 1021.2
20260502224558 60 48 3.0 9.0 0.00 0.00 0.00 18 1021.2
20260502224044 60 85 3.0 14.0 0.00 0.00 0.00 19 1021.2
20260502223544 60 49 4.0 14.0 0.00 0.00 0.00 18 1021.3
20260502223054 60 96 4.0 11.0 0.00 0.00 0.00 18 1021.3
20260502222548 60 144 3.0 13.0 0.00 0.00 0.00 18 1021.4
20260502222043 61 115 2.0 13.0 0.00 0.00 0.00 19 1021.4
20260502221549 61 72 3.0 8.0 0.00 0.00 0.00 19 1021.5
20260502221048 61 0 2.0 7.0 0.00 0.00 0.00 19 1021.4
20260502220547 61 100 1.0 6.0 0.00 0.00 0.00 19 1021.4
20260502220053 61 123 3.0 10.0 0.00 0.00 0.00 19 1021.6
20260502215547 61 158 3.0 10.0 0.00 0.00 0.00 19 1021.6
20260502215045 61 57 3.0 8.0 0.00 0.00 0.00 19 1021.6
20260502214550 61 66 2.0 9.0 0.00 0.00 0.00 20 1021.7
20260502214044 61 130 2.0 9.0 0.00 0.00 0.00 20 1021.9
20260502213544 61 72 0.0 9.0 0.00 0.00 0.00 20 1022.0
20260502213050 60 105 3.0 11.0 0.00 0.00 0.00 21 1022.0
20260502212544 60 86 4.0 11.0 0.00 0.00 0.00 21 1022.1
20260502212044 61 92 5.0 10.0 0.00 0.00 0.00 19 1022.1
20260502211552 61 98 2.0 10.0 0.00 0.00 0.00 22 1022.2
20260502211050 61 105 4.0 12.0 0.00 0.00 0.00 20 1022.2
20260502210549 61 84 3.0 15.0 0.00 0.00 0.00 21 1022.3
20260502210103 61 74 7.0 15.0 0.00 0.00 0.00 20 1022.2
20260502205547 61 106 4.0 12.0 0.00 0.00 0.00 21 1022.3
20260502205047 60 53 3.0 12.0 0.00 0.00 0.00 21 1022.4
20260502204555 61 78 4.0 12.0 0.00 0.00 0.00 22 1022.4
20260502204044 61 34 3.0 10.0 0.00 0.00 0.00 20 1022.4
20260502203547 61 80 3.0 10.0 0.00 0.00 0.00 22 1022.4
20260502203052 61 63 6.0 10.0 0.00 0.00 0.00 21 1022.5
20260502202544 61 40 2.0 14.0 0.00 0.00 0.00 22 1022.5
20260502202045 61 78 2.0 14.0 0.00 0.00 0.00 22 1022.4
20260502201553 61 76 2.0 11.0 0.00 0.00 0.00 22 1022.5
20260502201047 61 132 4.0 11.0 0.00 0.00 0.00 22 1022.6